DELTA 1 DEB, 10178

Orbit data source: Space-Track

DELTA 1 DEB, 10178 is space debris in LEO originally from a launch on Thu, 14 Jul 1977 UTC launched from the Air Force Eastern Test Range (AFETR). Debris objects in space refer to the collection of defunct objects orbiting the Earth. Examples of debris include non-operational satellites, rocket bodies, and fragments generated from explosions, collisions, or faulty payload assembly.

Loading next visibility...
Identifier
10178, 1977-065G
Orbit
LEO
Country
Flag of USUS
Related business
Manufacturer
Unknown
Mission
Spacecraft
Bus & Motor
Unknown
Mass
Unknown
Launch date (UTC)
1977-07-14 (49 years ago)
Launch vehicle
Unknown
Launch site
Air Force Eastern Test Range (AFETR)
Object type
Payload
Rocket body
Debris
Shape & HBR
Unknown shape, 1.1 m
Radar Cross Section
Medium (>0.1 m² and <1 m²)

Expand to show TLE details & history
Last TLE update: 1 day ago

TLE from 1 day ago
0 DELTA 1 DEB
1 10178U 77065G   26262.11963323 -.00000446  00000-0 -16060-2 0  9999
2 10178  28.7134 231.9355 0903997 220.9428 233.3260 12.09517750 21634
Epoch: 2026-09-19T02:52Z
TLE epoch observation values (Epoch: 2026-09-19T02:52:16.311Z)
Latitude
28.76429°
Longitude
-83.14605°
Altitude
2,109.307 km
Speed
6.654 km/s
True Right ascension
21h 11m 49s
True Declination
28° 38' 33"
Sunlit
Object was in full shadow at epoch
Visualization orbit readout
Latitude
Unknown
Longitude
Unknown
Altitude
Unknown
Speed
Unknown
Apparent Right ascension
Unknown
Apparent Declination
Unknown
Sunlit
N/A
Visualization observer readout
Local Sidereal Time
02:39:07
Azimuth
Unknown
Elevation
Unknown
Doppler factor
Unknown
Orbital elements
Apogee altitude
2,367.203 km
Perigee altitude
917.136 km
Semi-major axis
8,020.306 km
Eccentricity
0.0904
Inclination
28.7134°
RAAN
231.9355°
Arg. of periapsis
220.9428°
True anomaly
225.5676°
Mean anomaly
233.326°
Eccentric anomaly
229.39371°
Mean motion
3.02174 °/min
Orbital period
119.14 mins
BSTAR
-0.001606
Loading maneuver chart data...
Computing Atmospheric mass density...
Loading historical data...
Loading historical data...
Loading historical data...
Loading historical data...
Loading historical data...
Loading historical data...
Loading historical data...

Documentation

Showing up to 5 results
|